Ambroz, Spain

12:08 AM CEST on June 28, 2017 (GMT +0200)
Ambroz

Weather History for 08221 - December, 2013

Change the Weather History Date:

Sunday, December 22, 2013

  Actual Average Record
Temperature  
Mean Temperature 39 °F -  
Max Temperature 52 °F 49 °F - ()
Min Temperature 26 °F 32 °F - ()
Degree Days  
Heating Degree Days 26    
Moisture  
Dew Point 29 °F    
Average Humidity 76    
Maximum Humidity 100    
Minimum Humidity 38    
Precipitation  
Precipitation 0.00 in 0.06 in - ()
Sea Level Pressure  
Sea Level Pressure 30.48 in    
Wind  
Wind Speed 3 mph ()    
Max Wind Speed 6 mph    
Max Gust Speed 14 mph    
Visibility 17.7 miles    
Events      
T = Trace of Precipitation, MM = Missing Value Source: Averaged Metar Reports

Daily Weather History Graph

Daily Weather History Graph

Search for Another Location

Airport or City:

Trip Planner

Search our weather history database for the weather conditions in past years. The results will help you decide how hot, cold, wet, or windy it might be!

Date:

Astronomy

Dec. 22, 2013 Rise Set
Actual Time 8:34 AM CET 5:51 PM CET
Civil Twilight 8:03 AM CET 6:22 PM CET
Nautical Twilight 7:29 AM CET 6:56 PM CET
Astronomical Twilight 6:55 AM CET 7:29 PM CET
Moon 10:51 PM CET (12/22) 11:22 AM CET (12/22)
Length of Visible Light 10h 18m
Length of Day
9h 16m
Waning Gibbous, 79% of the Moon is Illuminated
Dec 22
Waning Gibbous
Dec 25
Last Quarter
Jan 1
New
Jan 8
First Quarter
Jan 16
Full

Hourly Weather History & Observations

Time (CET) Temp. Windchill Dew Point Humidity Pressure Visibility Wind Dir Wind Speed Gust Speed Precip Events Conditions
12:00 AM 33 °F - 30 °F 82% 30.60 in 19 mi NNW 4.6 mph - -  
12:00 AM 33.8 °F 30.8 °F 30.2 °F 87% 30.48 in - NNW 3.5 mph - N/A   Clear
12:30 AM 33.8 °F 29.6 °F 30.2 °F 87% 30.48 in - NNW 4.6 mph - N/A   Clear
1:00 AM 32 °F - 29 °F 86% 30.58 in 19 mi North 4.6 mph - -  
1:00 AM 32.0 °F 27.5 °F 30.2 °F 93% 30.48 in - North 4.6 mph - N/A   Clear
1:30 AM 32.0 °F 26.4 °F 28.4 °F 87% 30.48 in - NNW 5.8 mph - N/A   Clear
2:00 AM 32 °F - 28 °F 79% 30.58 in 19 mi NNW 3.5 mph - -  
2:00 AM 32.0 °F 28.7 °F 28.4 °F 87% 30.48 in - NNW 3.5 mph - N/A   Clear
2:30 AM 32.0 °F 27.5 °F 26.6 °F 80% 30.48 in - NNW 4.6 mph - N/A   Clear
3:00 AM 30 °F - 27 °F 85% 30.59 in 19 mi North 3.5 mph - -  
3:00 AM 30.2 °F 26.7 °F 26.6 °F 86% 30.48 in - North 3.5 mph - N/A   Clear
3:30 AM 30.2 °F 26.7 °F 26.6 °F 86% 30.48 in - North 3.5 mph - N/A   Clear
4:00 AM 29 °F - 27 °F 88% 30.59 in 19 mi NNW 3.5 mph - -  
4:00 AM 28.4 °F 24.6 °F 26.6 °F 93% 30.48 in - North 3.5 mph - N/A   Clear
4:30 AM 28.4 °F 24.6 °F 26.6 °F 93% 30.48 in - North 3.5 mph - N/A   Clear
5:00 AM 29 °F - 26 °F 84% 30.59 in 19 mi NNW 4.6 mph - -  
5:00 AM 28.4 °F 23.3 °F 26.6 °F 93% 30.48 in - NNW 4.6 mph - N/A   Clear
5:30 AM 28.4 °F 24.6 °F 26.6 °F 93% 30.45 in - North 3.5 mph - N/A   Clear
6:00 AM 27 °F - 25 °F 89% 30.58 in 19 mi North 3.5 mph - -  
6:00 AM 26.6 °F 22.6 °F 26.6 °F 100% 30.45 in - North 3.5 mph - N/A   Clear
6:30 AM 26.6 °F 21.2 °F 24.8 °F 93% 30.45 in - North 4.6 mph - N/A   Clear
7:00 AM 27 °F - 25 °F 88% 30.59 in 19 mi NNW 4.6 mph - -  
7:00 AM 26.6 °F 21.2 °F 24.8 °F 93% 30.45 in - NNW 4.6 mph - N/A   Clear
7:30 AM 26.6 °F 22.6 °F 23.0 °F 86% 30.48 in - North 3.5 mph - N/A   Clear
8:00 AM 26 °F - 24 °F 88% 30.61 in 12 mi NNW 3.5 mph - -  
8:00 AM 26.6 °F - 24.8 °F 93% 30.48 in - North 2.3 mph - N/A   Clear
8:30 AM 26.6 °F - 24.8 °F 93% 30.48 in - North 2.3 mph - N/A   Clear
9:00 AM 26 °F - 24 °F 87% 30.61 in 19 mi NW 3.5 mph - -   Clear
9:00 AM 26.6 °F - 24.8 °F 93% 30.48 in - NNW 2.3 mph - N/A   Clear
9:30 AM 28.4 °F - 24.8 °F 86% 30.48 in - Variable 2.3 mph - N/A   Clear
10:00 AM 31 °F - 26 °F 72% 30.60 in 19 mi North 3.5 mph - -   Clear
10:00 AM 30.2 °F - 24.8 °F 80% 30.48 in - Variable 2.3 mph - N/A   Clear
10:30 AM 32.0 °F - 24.8 °F 75% 30.48 in - Variable 2.3 mph - N/A   Clear
11:00 AM 34 °F - 27 °F 68% 30.60 in 19 mi NW 4.6 mph - -   Clear
11:00 AM 33.8 °F 30.8 °F 26.6 °F 75% 30.51 in - NW 3.5 mph - N/A   Clear
11:30 AM 35.6 °F - 28.4 °F 75% 30.51 in - Variable 2.3 mph - N/A   Clear
12:00 PM 40 °F - 30 °F 58% 30.56 in 19 mi WNW 3.5 mph - -   Clear
12:00 PM 39.2 °F 37.0 °F 28.4 °F 65% 30.48 in - NW 3.5 mph - N/A   Clear
12:30 PM 41.0 °F - 30.2 °F 65% 30.48 in - Variable 2.3 mph - N/A   Clear
1:00 PM 45 °F - 33 °F 52% 30.51 in 19 mi WSW 2.3 mph - -  
1:00 PM 44.6 °F - 32.0 °F 61% 30.48 in - Variable 1.2 mph - N/A   Clear
1:30 PM 44.6 °F - 32.0 °F 61% 30.45 in - Variable 2.3 mph 13.8 mph N/A   Clear
2:00 PM 48 °F - 34 °F 46% 30.47 in 19 mi WSW 2.3 mph - -   Clear
2:00 PM 46.4 °F - 32.0 °F 57% 30.45 in - West 2.3 mph - N/A   Clear
2:30 PM 48.2 °F - 32.0 °F 54% 30.42 in - WSW 1.2 mph - N/A   Clear
3:00 PM 50 °F - 33 °F 41% 30.45 in 19 mi NNE 1.2 mph - -   Clear
3:00 PM 50.0 °F - 32.0 °F 50% 30.42 in - NNE 1.2 mph - N/A   Clear
3:30 PM 51.8 °F - 32.0 °F 47% 30.42 in - West 1.2 mph - N/A   Clear
4:00 PM 52 °F - 34 °F 38% 30.42 in 19 mi SSE 2.3 mph - -   Clear
4:00 PM 50.0 °F - 32.0 °F 50% 30.42 in - Variable 1.2 mph - N/A   Clear
4:30 PM 50.0 °F - 33.8 °F 54% 30.42 in - Variable 1.2 mph - N/A   Clear
5:00 PM 51 °F - 35 °F 43% 30.43 in 19 mi ESE 3.5 mph - -   Clear
5:00 PM 48.2 °F - 33.8 °F 58% 30.42 in - ESE 3.5 mph - N/A   Clear
5:30 PM 48.2 °F - 33.8 °F 58% 30.42 in - Variable 2.3 mph - N/A   Clear
6:00 PM 45 °F - 36 °F 60% 30.46 in 17 mi ESE 1.2 mph - -   Clear
6:00 PM 44.6 °F - 33.8 °F 66% 30.42 in - Variable 1.2 mph - N/A   Clear
6:30 PM 41.0 °F - 33.8 °F 76% 30.42 in - ENE 2.3 mph - N/A   Clear
7:00 PM 42 °F - 34 °F 66% 30.48 in 12 mi SE 3.5 mph - -  
7:00 PM 42.8 °F 41.1 °F 33.8 °F 70% 30.42 in - SE 3.5 mph - N/A   Clear
7:30 PM 41.0 °F - 33.8 °F 76% 30.42 in - Calm Calm - N/A   Clear
8:00 PM 39 °F - 33 °F 73% 30.50 in 19 mi NNE 2.3 mph - -  
8:00 PM 39.2 °F - 33.8 °F 81% 30.42 in - NNE 1.2 mph - N/A   Clear
8:30 PM 39.2 °F - 33.8 °F 81% 30.42 in - North 2.3 mph - N/A   Clear
9:00 PM 37 °F - 32 °F 77% 30.51 in 19 mi NNE 4.6 mph - -  
9:00 PM 37.4 °F - 32.0 °F 81% 30.42 in - Variable 2.3 mph - N/A   Clear
9:30 PM 35.6 °F 32.8 °F 32.0 °F 87% 30.42 in - North 3.5 mph - N/A   Clear
10:00 PM 35 °F - 30 °F 77% 30.52 in 14 mi NNW 4.6 mph - -  
10:00 PM 35.6 °F 31.7 °F 30.2 °F 81% 30.42 in - North 4.6 mph - N/A   Clear
10:30 PM 33.8 °F 29.6 °F 30.2 °F 87% 30.42 in - NNW 4.6 mph - N/A   Clear
11:00 PM 34 °F - 30 °F 81% 30.52 in 10 mi NNW 5.8 mph - -  
11:00 PM 33.8 °F 29.6 °F 30.2 °F 87% 30.42 in - North 4.6 mph - N/A   Clear
11:30 PM 33.8 °F - 30.2 °F 87% 30.42 in - Variable 2.3 mph - N/A   Clear